Terminal Aerodrome Forecast
Issued by NWS

Home | Current Version | Previous Version | Text Only | Print | Product List | Glossary On
Versions: 1 2 3 4 5 6 7 8 9 10 11 12 13 14 15 16 17 18 19 20 21 22 23 24 25 26 27 28 29 30 31 32
000
FTUS41 KBOX 250302 AAA
TAFBED
TAF AMD
KBED 250302Z 2503/2524 27008KT P6SM SCT025 BKN150
     FM250600 28008KT P6SM SCT250
     FM251500 27009KT P6SM SCT050
     FM251800 29010G19KT P6SM FEW250=

USA.gov is the U.S. government's official web portal to all federal, state and local government web resources and services.